Погода в Сангкапуре

Индонезия     5°50′44″S   112°39′20″E
темп.,
°C
ветер,
м/с
пор.,
м/с
влажн.,
%
обл.,
%
осадки,
мм/ч
давл.,
гПа
погр.,
м
2 марта, вт
вт201:00+28з117517 0.0 1009169
04:00+28зсз227522 0.0 1008214
07:00+28зюз237725 0.1 1010357
10:00+28з227351 0.3 1011315
13:00+29зсз347032 0.6 1009648
16:00+29зсз56730 0.1 1007783
19:00+28зсз55770 0.1 1010260
22:00+28з358311 0.1 1011528
3 марта, ср
ср301:00+28з467815 0.9 1009537
04:00+28зюз687766 0.8 1009635
07:00+28зюз687849 0.9 1010582
10:00+28з457586 0.0 1011481
13:00+28зсз567473 1.0 1009524
16:00+28ссз897462 1.7 1008769
19:00+27с888332 2.8 1010678
22:00+27с568141 2.1 1012396
4 марта, чт
чт401:00+27зсз227463 2.1 1010388
04:00+27зсз2274100 0.0 1010257
07:00+28з4577100 0.0 1011378
10:00+28з357589 0.3 1012469
13:00+28з457495 0.6 1010668
16:00+28зсз457686 0.0 1008678
19:00+28зсз337993 0.0 1010570
22:00+27зсз2379100 1.7 1011157
5 марта, пт
пт501:00+28зюз3577100 1.9 1010498
04:00+26ююз8983100 0.1 1009376
07:00+28юз3569100 0.1 1011386
10:00+28з3471100 0.0 1012491
13:00+28зюз2369100 0.0 1009390
16:00+28з1168100 0.0 1008351
19:00+28ссз1168100 0.0 1010198
22:00+28с2372100 0.0 1010285
6 марта, сб
сб601:00+28ссз1273100 0.0 1009243
04:00+28з2273100 0.0 1008263
07:00+28юз1272100 0.0 1010250
10:00+28сз1169100 0.0 1011436
13:00+28ссз236850 0.0 1009739
16:00+29ссз33670 0.0 1008842
19:00+28сз22750 0.0 101063
22:00+28юз11760 0.0 101061